Back to catalog

ATLAS 5 CENTAUR DEB

LostHEO
NORAD 46646·DEBRIS·🇺🇸 United States

Launched Sep 17, 2014 from Cape Canaveral Space Force Station

Loading…

Next Passes (next 24 hours)

TLE

StaleSource: Space-Track

Epoch: Nov 27, 2021, 21:48 UTC

1 46646U 14055CW  21331.90840433 -.00000087  00000-0  00000+0 0  9997
2 46646  21.4093 289.7104 4640865 262.9405  44.0653  1.91398329  7856

Track ATLAS 5 CENTAUR DEB in real time with AllMySat

Download on the App Store